Weather History for LIRA - October, 2012

Change the Weather History Date:

Saturday, October 13, 2012

  Actual Average Record
Temperature  
Mean Temperature 64 °F -  
Max Temperature 69 °F 67 °F 86 °F (2000)
Min Temperature 59 °F 48 °F 50 °F (1996)
Degree Days  
Heating Degree Days 1    
Growing Degree Days 14 (Base 50)    
Moisture  
Dew Point 60 °F    
Average Humidity 91    
Maximum Humidity 94    
Minimum Humidity 83    
Precipitation  
Precipitation 0.00 in 0.14 in - ()
Sea Level Pressure  
Sea Level Pressure 29.86 in    
Wind  
Wind Speed 3 mph ()    
Max Wind Speed 10 mph    
Max Gust Speed -    
Visibility 6.0 miles    
Events Fog , Rain , Thunderstorm    
Averages and records for this station are not official NWS values.
T = Trace of Precipitation, MM = Missing Value Source: Averaged Metar Reports

Daily Weather History Graph

Daily Weather History Graph

Search for Another Location

Airport or City:

Trip Planner

Search our weather history database for the weather conditions in past years. The results will help you decide how hot, cold, wet, or windy it might be!

Date:

Astronomy

Oct. 13, 2012 Rise Set
Actual Time 7:19 AM CEST 6:31 PM CEST
Civil Twilight 6:51 AM CEST 6:59 PM CEST
Nautical Twilight 6:19 AM CEST 7:31 PM CEST
Astronomical Twilight 5:47 AM CEST 8:03 PM CEST
Moon 4:48 AM CEST (10/13) 5:06 PM CEST (10/13)
Length of Visible Light 12h 07m
Length of Day
11h 11m
Waning Crescent, 6% of the Moon is Illuminated
Oct 13
Waning Crescent
Oct 15
New
Oct 22
First Quarter
Oct 29
Full
Nov 7
Last Quarter

Hourly Weather History & Observations

Time (CEST) Temp. Dew Point Humidity Pressure Visibility Wind Dir Wind Speed Gust Speed Precip Events Conditions
12:15 AM 62.6 °F 59.0 °F 88% 29.89 in 6.2 mi NE 3.5 mph - N/A   Partly Cloudy
12:45 AM 62.6 °F 59.0 °F 88% 29.89 in 6.2 mi NE 4.6 mph - N/A   Partly Cloudy
1:15 AM 62.6 °F 59.0 °F 88% 29.89 in - East 5.8 mph - N/A   Clear
1:45 AM 62.6 °F 59.0 °F 88% 29.89 in - East 5.8 mph - N/A   Clear
2:15 AM 62.6 °F 60.8 °F 94% 29.89 in - East 1.2 mph - N/A   Clear
2:45 AM 62.6 °F 60.8 °F 94% 29.89 in - Calm Calm - N/A   Clear
3:15 AM 60.8 °F 59.0 °F 94% 29.89 in - SSE 2.3 mph - N/A   Clear
3:45 AM 60.8 °F 57.2 °F 88% 29.89 in - SSE 2.3 mph - N/A   Clear
4:15 AM 60.8 °F 57.2 °F 88% 29.89 in - SSW 1.2 mph - N/A   Clear
4:45 AM 59.0 °F 57.2 °F 94% 29.89 in - Calm Calm - N/A   Clear
5:15 AM 59.0 °F 57.2 °F 94% 29.89 in 6.2 mi Calm Calm - N/A   Scattered Clouds
5:45 AM 59.0 °F 57.2 °F 94% 29.89 in 6.2 mi NNE 2.3 mph - N/A   Scattered Clouds
6:15 AM 59.0 °F 57.2 °F 94% 29.89 in 6.2 mi ENE 4.6 mph - N/A   Scattered Clouds
6:45 AM 60.8 °F 57.2 °F 88% 29.86 in 6.2 mi ENE 3.5 mph - N/A   Scattered Clouds
7:15 AM 60.8 °F 59.0 °F 94% 29.86 in 6.2 mi Calm Calm - N/A   Scattered Clouds
7:45 AM 60.8 °F 59.0 °F 94% 29.86 in 6.2 mi Calm Calm - N/A   Scattered Clouds
8:15 AM 60.8 °F 59.0 °F 94% 29.86 in 6.2 mi ESE 1.2 mph - N/A   Scattered Clouds
8:45 AM 60.8 °F 59.0 °F 94% 29.86 in 6.2 mi NW 1.2 mph - N/A   Scattered Clouds
9:15 AM 62.6 °F 59.0 °F 88% 29.89 in 6.2 mi Calm Calm - N/A   Scattered Clouds
9:45 AM 62.6 °F 60.8 °F 94% 29.89 in 6.2 mi NE 1.2 mph - N/A   Scattered Clouds
10:15 AM 64.4 °F 62.6 °F 94% 29.89 in 6.2 mi North 1.2 mph - N/A   Scattered Clouds
10:45 AM 66.2 °F 62.6 °F 88% 29.89 in 6.2 mi NW 2.3 mph - N/A   Scattered Clouds
11:15 AM 66.2 °F 64.4 °F 94% 29.89 in 6.2 mi WNW 1.2 mph - N/A   Scattered Clouds
11:45 AM 69.8 °F 64.4 °F 83% 29.89 in 6.2 mi South 8.1 mph - N/A   Scattered Clouds
12:15 PM 69.8 °F 64.4 °F 83% 29.89 in 6.2 mi SSE 10.4 mph - N/A   Scattered Clouds
12:45 PM 68.0 °F 64.4 °F 88% 29.89 in 6.2 mi SSE 10.4 mph - N/A Rain , Thunderstorm Light Rain
1:15 PM 66.2 °F 64.4 °F 94% 29.89 in 4.3 mi South 10.4 mph - N/A Rain , Thunderstorm Light Thunderstorms and Rain
1:45 PM 66.2 °F 62.6 °F 88% 29.89 in 4.3 mi South 10.4 mph - N/A Rain , Thunderstorm Light Thunderstorms and Rain
2:15 PM 66.2 °F 62.6 °F 88% 29.86 in 4.3 mi South 5.8 mph - N/A Rain , Thunderstorm Light Thunderstorms and Rain
2:45 PM 64.4 °F 62.6 °F 94% 29.86 in 5.0 mi SSE 4.6 mph - N/A Rain , Thunderstorm Light Thunderstorms and Rain
3:15 PM 64.4 °F 60.8 °F 88% 29.86 in 6.2 mi SE 4.6 mph - N/A Rain , Thunderstorm Light Rain
3:45 PM 64.4 °F 60.8 °F 88% 29.86 in 6.2 mi ESE 1.2 mph - N/A Rain , Thunderstorm Light Rain
4:15 PM 64.4 °F 62.6 °F 94% 29.86 in 6.2 mi Calm Calm - N/A Rain Light Rain
4:45 PM 66.2 °F 62.6 °F 88% 29.83 in 6.2 mi WSW 1.2 mph - N/A Rain Light Rain
5:15 PM 66.2 °F 62.6 °F 88% 29.83 in 6.2 mi NNE 1.2 mph - N/A   Mostly Cloudy
5:45 PM 66.2 °F 62.6 °F 88% 29.83 in 6.2 mi NNE 1.2 mph - N/A   Mostly Cloudy
6:15 PM 66.2 °F 62.6 °F 88% 29.80 in 6.2 mi WNW 2.3 mph - N/A   Mostly Cloudy
6:45 PM 66.2 °F 62.6 °F 88% 29.80 in 6.2 mi West 2.3 mph - N/A   Mostly Cloudy
7:15 PM 64.4 °F 62.6 °F 94% 29.80 in 6.2 mi Calm Calm - N/A   Scattered Clouds
7:45 PM 64.4 °F 62.6 °F 94% 29.80 in 6.2 mi Calm Calm - N/A Fog Shallow Fog
8:15 PM 62.6 °F 60.8 °F 94% 29.80 in 6.2 mi SSE 1.2 mph - N/A   Scattered Clouds
8:45 PM 62.6 °F 59.0 °F 88% 29.83 in 6.2 mi SE 1.2 mph - N/A   Scattered Clouds
9:15 PM 60.8 °F 59.0 °F 94% 29.83 in 6.2 mi Calm Calm - N/A   Scattered Clouds
9:45 PM 60.8 °F 59.0 °F 94% 29.83 in 6.2 mi SSE 3.5 mph - N/A   Scattered Clouds
10:15 PM 59.0 °F 57.2 °F 94% 29.83 in 6.2 mi East 1.2 mph - N/A   Partly Cloudy
10:45 PM 59.0 °F 57.2 °F 94% 29.83 in 6.2 mi Calm Calm - N/A   Partly Cloudy
11:15 PM 59.0 °F 57.2 °F 94% 29.83 in 6.2 mi East 2.3 mph - N/A   Scattered Clouds
11:45 PM 59.0 °F 57.2 °F 94% 29.83 in 6.2 mi SE 2.3 mph - N/A   Scattered Clouds